WZZ6721 EPKK-LHBP

Flight info

Callsign WZZ6721
Flight time 0h 39m
Altitude 30000
Route BABKO DCT NIDOK/N0437F290 DCT EDEMU
Aircraft A20N/M-SDE2E3FGHIRWXY/LB1

Departure

Time 2026-05-07 17:48
Airport Kraków John Paul II International Airport (EPKK)

Arrival

Time 2026-05-07 18:28
Airport Budapest Liszt Ferenc International Airport (LHBP)
Time Latitude Longitude Altitude Speed Heading
2026-05-07 17:25 50.07332 19.80201 793 ft 0 kts 226°
2026-05-07 17:37 50.07339 19.80213 765 ft 2 kts 225°
2026-05-07 17:37 50.07354 19.80224 782 ft 3 kts 171°
2026-05-07 17:37 50.07372 19.80219 792 ft 3 kts 171°
2026-05-07 17:38 50.07390 19.80215 792 ft 3 kts 171°
2026-05-07 17:38 50.07405 19.80208 792 ft 0 kts 135°
2026-05-07 17:38 50.07410 19.80202 792 ft 3 kts 121°
2026-05-07 17:39 50.07413 19.80177 792 ft 0 kts 81°
2026-05-07 17:41 50.07422 19.80261 792 ft 15 kts 78°
2026-05-07 17:41 50.07495 19.80392 792 ft 17 kts 20°
2026-05-07 17:42 50.07605 19.80408 792 ft 15 kts 351°
2026-05-07 17:42 50.07704 19.80376 792 ft 14 kts 348°
2026-05-07 17:42 50.07797 19.80345 792 ft 13 kts 348°
2026-05-07 17:42 50.07829 19.80335 792 ft 0 kts 348°
2026-05-07 17:45 50.07919 19.80305 791 ft 21 kts 347°
2026-05-07 17:46 50.08002 19.80172 792 ft 17 kts 270°
2026-05-07 17:46 50.08000 19.80134 792 ft 0 kts 259°
2026-05-07 17:47 50.07992 19.80074 793 ft 26 kts 259°
2026-05-07 17:48 50.07903 19.79443 794 ft 92 kts 257°
2026-05-07 17:48 50.07719 19.78162 801 ft 147 kts 255°
2026-05-07 17:48 50.07507 19.76632 1359 ft 142 kts 257°
2026-05-07 17:48 50.07343 19.75117 1901 ft 145 kts 260°
2026-05-07 17:49 50.07167 19.73544 2441 ft 161 kts 258°
2026-05-07 17:49 50.06891 19.71703 2822 ft 190 kts 257°
2026-05-07 17:49 50.06567 19.69579 3216 ft 217 kts 257°
2026-05-07 17:49 50.06101 19.67281 4004 ft 227 kts 244°
2026-05-07 17:50 50.05094 19.65411 4954 ft 234 kts 216°
2026-05-07 17:50 50.03536 19.64577 5647 ft 255 kts 185°
2026-05-07 17:50 50.01713 19.64878 5970 ft 272 kts 171°
2026-05-07 17:50 49.99866 19.65543 6019 ft 273 kts 169°
2026-05-07 17:51 49.98029 19.66245 6019 ft 273 kts 169°
2026-05-07 17:51 49.96189 19.66926 6024 ft 273 kts 169°
2026-05-07 17:51 49.94352 19.67581 6024 ft 273 kts 170°
2026-05-07 17:51 49.92509 19.68223 6025 ft 273 kts 170°
2026-05-07 17:52 49.90660 19.68840 6029 ft 272 kts 172°
2026-05-07 17:52 49.88790 19.69104 6029 ft 269 kts 184°
2026-05-07 17:52 49.86954 19.68696 6046 ft 267 kts 198°
2026-05-07 17:52 49.85225 19.67592 6515 ft 270 kts 209°
2026-05-07 17:53 49.83572 19.66206 7523 ft 270 kts 211°
2026-05-07 17:53 49.81931 19.64783 8579 ft 270 kts 211°
2026-05-07 17:53 49.80286 19.63354 9584 ft 273 kts 211°
2026-05-07 17:53 49.78620 19.61911 10399 ft 281 kts 211°
2026-05-07 17:54 49.76846 19.60378 10812 ft 304 kts 210°
2026-05-07 17:54 49.74934 19.58731 11197 ft 325 kts 210°
2026-05-07 17:54 49.72942 19.57020 11776 ft 337 kts 210°
2026-05-07 17:54 49.70921 19.55286 12609 ft 342 kts 210°
2026-05-07 17:55 49.68837 19.53503 13575 ft 344 kts 209°
2026-05-07 17:55 49.66737 19.51708 14426 ft 347 kts 209°
2026-05-07 17:55 49.64615 19.49893 15186 ft 352 kts 209°
2026-05-07 17:55 49.62474 19.48066 16003 ft 354 kts 209°
2026-05-07 17:56 49.60325 19.46210 16780 ft 357 kts 210°
2026-05-07 17:56 49.58164 19.44303 17577 ft 360 kts 210°
2026-05-07 17:56 49.55986 19.42358 18347 ft 363 kts 211°
2026-05-07 17:56 49.53789 19.40390 19001 ft 367 kts 210°
2026-05-07 17:57 49.51571 19.38404 19610 ft 371 kts 210°
2026-05-07 17:57 49.50088 19.37079 20008 ft 374 kts 210°
2026-05-07 17:57 49.47823 19.35060 20642 ft 378 kts 209°
2026-05-07 17:57 49.44766 19.32344 21482 ft 382 kts 209°
2026-05-07 17:58 49.43229 19.30981 21895 ft 385 kts 208°
2026-05-07 17:58 49.40902 19.28919 22499 ft 388 kts 208°
2026-05-07 17:58 49.38560 19.26849 23093 ft 392 kts 208°
2026-05-07 17:58 49.36197 19.24762 23649 ft 396 kts 208°
2026-05-07 17:59 49.33800 19.22646 23930 ft 398 kts 208°
2026-05-07 17:59 49.31402 19.20531 23992 ft 398 kts 208°
2026-05-07 17:59 49.29003 19.18417 23994 ft 398 kts 208°
2026-05-07 17:59 49.26600 19.16303 23995 ft 398 kts 208°
2026-05-07 18:00 49.24197 19.14190 23990 ft 397 kts 207°
2026-05-07 18:00 49.21807 19.12089 23989 ft 396 kts 208°
2026-05-07 18:00 49.19418 19.09993 23989 ft 396 kts 208°
2026-05-07 18:00 49.17028 19.07899 23995 ft 396 kts 208°
2026-05-07 18:01 49.14666 19.05834 23993 ft 396 kts 208°
2026-05-07 18:01 49.12242 19.03717 23986 ft 396 kts 207°
2026-05-07 18:01 49.09882 19.01658 23994 ft 396 kts 207°
2026-05-07 18:01 49.07488 18.99570 23987 ft 396 kts 207°
2026-05-07 18:02 49.02707 18.95407 23989 ft 395 kts 207°
2026-05-07 18:02 49.00324 18.93336 23986 ft 395 kts 207°
2026-05-07 18:02 48.97936 18.91263 23989 ft 394 kts 207°
2026-05-07 18:03 48.95570 18.89258 23985 ft 394 kts 205°
2026-05-07 18:03 48.93055 18.87688 23994 ft 392 kts 196°
2026-05-07 18:03 48.90391 18.86823 23986 ft 391 kts 186°
2026-05-07 18:03 48.87674 18.86805 23985 ft 392 kts 175°
2026-05-07 18:04 48.85014 18.87688 23993 ft 394 kts 163°
2026-05-07 18:04 48.82531 18.89462 23996 ft 399 kts 151°
2026-05-07 18:04 48.80313 18.92045 23997 ft 404 kts 142°
2026-05-07 18:04 48.78283 18.94920 23992 ft 405 kts 140°
2026-05-07 18:05 48.76267 18.97858 23997 ft 405 kts 140°
2026-05-07 18:05 48.74233 19.00814 24004 ft 405 kts 140°
2026-05-07 18:05 48.72195 19.03755 23996 ft 404 kts 141°
2026-05-07 18:05 48.70179 19.06650 23973 ft 405 kts 140°
2026-05-07 18:06 48.68125 19.09587 24001 ft 407 kts 140°
2026-05-07 18:06 48.66066 19.12525 24004 ft 407 kts 140°
2026-05-07 18:06 48.64010 19.15451 24005 ft 407 kts 140°
2026-05-07 18:06 48.61945 19.18388 24001 ft 407 kts 140°
2026-05-07 18:07 48.59894 19.21299 23999 ft 407 kts 140°
2026-05-07 18:07 48.57827 19.24229 24006 ft 407 kts 140°
2026-05-07 18:07 48.55758 19.27160 24007 ft 407 kts 141°
2026-05-07 18:07 48.53699 19.30072 24007 ft 408 kts 141°
2026-05-07 18:08 48.51648 19.32969 23863 ft 408 kts 141°
2026-05-07 18:08 48.49575 19.35894 23022 ft 410 kts 141°
2026-05-07 18:08 48.47481 19.38842 21856 ft 419 kts 141°
2026-05-07 18:08 48.45382 19.41795 21058 ft 419 kts 140°
2026-05-07 18:09 48.43263 19.44778 20432 ft 414 kts 140°
2026-05-07 18:09 48.41167 19.47725 19812 ft 410 kts 140°
2026-05-07 18:09 48.39099 19.50627 19178 ft 406 kts 140°
2026-05-07 18:09 48.37049 19.53499 18559 ft 402 kts 140°
2026-05-07 18:10 48.35010 19.56354 17885 ft 399 kts 140°
2026-05-07 18:10 48.32982 19.59189 17120 ft 397 kts 140°
2026-05-07 18:10 48.30962 19.62009 16429 ft 395 kts 140°
2026-05-07 18:10 48.28955 19.64806 16078 ft 394 kts 140°
2026-05-07 18:11 48.26966 19.67576 15996 ft 395 kts 140°
2026-05-07 18:11 48.25602 19.69474 16004 ft 395 kts 140°
2026-05-07 18:11 48.22948 19.73164 16000 ft 394 kts 140°
2026-05-07 18:11 48.20919 19.75900 16001 ft 392 kts 144°
2026-05-07 18:12 48.18665 19.78122 16002 ft 387 kts 156°
2026-05-07 18:12 48.16180 19.79441 15999 ft 383 kts 170°
2026-05-07 18:12 48.13559 19.79826 15587 ft 375 kts 183°
2026-05-07 18:12 48.10976 19.79420 14906 ft 372 kts 189°
2026-05-07 18:13 48.08431 19.78803 14236 ft 369 kts 190°
2026-05-07 18:13 48.05904 19.78170 13559 ft 367 kts 190°
2026-05-07 18:13 48.03396 19.77555 12824 ft 364 kts 190°
2026-05-07 18:13 48.00906 19.76956 12259 ft 361 kts 190°
2026-05-07 18:14 47.98429 19.76369 12030 ft 360 kts 190°
2026-05-07 18:14 47.95963 19.75789 12002 ft 360 kts 190°
2026-05-07 18:14 47.93486 19.75209 12002 ft 360 kts 190°
2026-05-07 18:14 47.91013 19.74632 12000 ft 360 kts 190°
2026-05-07 18:15 47.88551 19.74058 12000 ft 360 kts 190°
2026-05-07 18:15 47.86083 19.73473 11998 ft 359 kts 191°
2026-05-07 18:15 47.83680 19.72456 11996 ft 358 kts 204°
2026-05-07 18:15 47.81558 19.70548 12000 ft 358 kts 218°
2026-05-07 18:16 47.79711 19.68166 11994 ft 358 kts 222°
2026-05-07 18:16 47.77885 19.65642 11999 ft 358 kts 223°
2026-05-07 18:16 47.76089 19.63144 12000 ft 358 kts 223°
2026-05-07 18:16 47.74267 19.60622 12001 ft 358 kts 222°
2026-05-07 18:17 47.72482 19.58163 11992 ft 339 kts 222°
2026-05-07 18:17 47.70803 19.55857 11990 ft 319 kts 222°
2026-05-07 18:17 47.69221 19.53689 11990 ft 300 kts 222°
2026-05-07 18:17 47.67736 19.51659 11989 ft 283 kts 222°
2026-05-07 18:18 47.66305 19.49706 11994 ft 277 kts 222°
2026-05-07 18:18 47.64890 19.47776 11997 ft 277 kts 222°
2026-05-07 18:18 47.63464 19.45834 11998 ft 278 kts 222°
2026-05-07 18:18 47.62041 19.43896 11997 ft 278 kts 222°
2026-05-07 18:19 47.60618 19.41960 11996 ft 279 kts 222°
2026-05-07 18:19 47.59189 19.40018 11996 ft 279 kts 222°
2026-05-07 18:19 47.57762 19.38079 11993 ft 279 kts 222°
2026-05-07 18:19 47.56349 19.36161 11989 ft 271 kts 222°
2026-05-07 18:20 47.54965 19.34419 11927 ft 258 kts 214°
2026-05-07 18:20 47.53351 19.33399 11628 ft 256 kts 191°
2026-05-07 18:20 47.51574 19.33592 11230 ft 262 kts 163°
2026-05-07 18:20 47.50019 19.35037 10853 ft 269 kts 141°
2026-05-07 18:21 47.48731 19.37004 10517 ft 270 kts 136°
2026-05-07 18:21 47.47466 19.39100 10180 ft 269 kts 135°
2026-05-07 18:21 47.46257 19.41104 9857 ft 268 kts 136°
2026-05-07 18:21 47.45021 19.43132 9477 ft 267 kts 136°
2026-05-07 18:22 47.43775 19.45158 9099 ft 265 kts 136°
2026-05-07 18:22 47.42949 19.46494 8851 ft 264 kts 136°
2026-05-07 18:22 47.41299 19.49155 8219 ft 261 kts 136°
2026-05-07 18:22 47.40081 19.51115 7803 ft 257 kts 136°
2026-05-07 18:23 47.38873 19.53055 7350 ft 256 kts 136°
2026-05-07 18:23 47.37660 19.54918 7050 ft 252 kts 143°
2026-05-07 18:23 47.36174 19.56166 6613 ft 245 kts 169°
2026-05-07 18:23 47.34517 19.56135 6110 ft 238 kts 199°
2026-05-07 18:24 47.33100 19.54948 5634 ft 235 kts 219°
2026-05-07 18:24 47.31889 19.53338 5185 ft 233 kts 227°
2026-05-07 18:24 47.31024 19.51362 5013 ft 232 kts 249°
2026-05-07 18:24 47.30840 19.49038 4990 ft 230 kts 276°
2026-05-07 18:25 47.31431 19.46910 4986 ft 223 kts 302°
2026-05-07 18:25 47.32420 19.45150 4997 ft 224 kts 308°
2026-05-07 18:25 47.33490 19.43460 4998 ft 226 kts 309°
2026-05-07 18:25 47.34568 19.41771 4897 ft 227 kts 310°
2026-05-07 18:26 47.35649 19.40060 4583 ft 227 kts 310°
2026-05-07 18:26 47.36754 19.38298 3738 ft 240 kts 310°
2026-05-07 18:26 47.37900 19.36450 2665 ft 248 kts 310°
2026-05-07 18:26 47.39038 19.34572 1601 ft 252 kts 311°
2026-05-07 18:27 47.40186 19.32732 1093 ft 233 kts 313°
2026-05-07 18:27 47.41251 19.31083 856 ft 213 kts 313°
2026-05-07 18:27 47.42199 19.29531 599 ft 198 kts 312°
2026-05-07 18:27 47.42793 19.28573 491 ft 189 kts 311°
2026-05-07 18:28 47.43730 19.27066 492 ft 96 kts 313°
2026-05-07 18:28 47.43982 19.26662 491 ft 14 kts 309°
2026-05-07 18:28 47.44019 19.26601 486 ft 14 kts 314°
2026-05-07 18:28 47.44127 19.26430 498 ft 28 kts 312°
2026-05-07 18:29 47.44276 19.26189 486 ft 34 kts 313°
2026-05-07 18:29 47.44452 19.25904 484 ft 39 kts 308°
2026-05-07 18:29 47.44445 19.25584 491 ft 32 kts 213°
2026-05-07 18:29 47.44263 19.25646 493 ft 28 kts 136°
2026-05-07 18:30 47.44135 19.25855 491 ft 27 kts 133°
2026-05-07 18:30 47.44111 19.25892 495 ft 0 kts 133°
2026-05-07 18:30 47.44111 19.25893 495 ft 2 kts 133°
2026-05-07 18:30 47.44039 19.26006 488 ft 28 kts 141°
2026-05-07 18:31 47.43986 19.26033 491 ft 4 kts 213°
2026-05-07 18:31 47.43934 19.25964 486 ft 16 kts 223°
2026-05-07 18:31 47.43863 19.25869 484 ft 0 kts 222°
2026-05-07 18:31 47.43847 19.25847 493 ft 15 kts 222°
2026-05-07 18:32 47.43820 19.25816 489 ft 7 kts 200°
2026-05-07 18:32 47.43788 19.25866 491 ft 0 kts 115°
2026-05-07 18:34 47.43766 19.25919 485 ft 10 kts 130°
2026-05-07 18:34 47.43681 19.26056 488 ft 7 kts 133°
2026-05-07 18:34 47.43668 19.26079 480 ft 8 kts 128°
2026-05-07 18:35 47.43612 19.26165 485 ft 0 kts 134°
2026-05-07 18:35 47.43598 19.26190 489 ft 0 kts 121°
2026-05-07 18:35 47.43599 19.26197 489 ft 3 kts 81°
2026-05-07 18:35 47.43666 19.26322 485 ft 19 kts 73°
2026-05-07 18:36 47.43636 19.26393 486 ft 2 kts 174°
2026-05-07 18:36 47.43594 19.26349 484 ft 0 kts 217°